Tracking 23731 objects as of 26-Sep-2021
HD Live streaming from Space Station
objects crossing your sky now

ESTRELA DU SOL-TELSTAR14

Track ESTRELA DU SOL-TELSTAR14 now!
ESTRELA DU SOL-TELSTAR14 is classified as:


NORAD ID: 28137
Int'l Code: 2004-001A
Perigee: 36,177.6 km
Apogee: 36,227.2 km
Inclination: 7.5 °
Period: 1,457.0 minutes
Semi major axis: 42573 km
RCS: 12.5892 m2 (large)
Launch date: January 11, 2004
Source: United States/Brazil (USBZ)
Launch site: SEA LAUNCH (SEAL)

41 Ku-band transponders; direct-to-home video and internet to Brazil and North America.
aabbcc
Your satellite tracking list
Your tracking list is empty




NASA's NSSDC Master Catalog

Two Line Element Set (TLE):
1 28137U 04001A   21268.45470909 -.00000141  00000-0  00000-0 0  9990
2 28137   7.5446  57.0354 0005833 352.8722  55.3675  0.98831515 64530
Source of the keplerian elements: AFSPC